Location: B�di�
(14.6834°N, 3.1047°W)
Time: 18:03:17
(UTC+00:00)

NOSS 3-2 (A) - Pass Details

Date: 24 January 2020
Orbit: 809 x 1399 km, 63.4° (Epoch: 20 February)

Event Time Altitude Azimuth Distance (km) Brightness Sun altitude
Rises 18:36:04 0° 190° (S) 3,327 6.7 -7.4°
Reaches altitude 10° 18:38:34 10° 184° (S) 2,383 5.9 -8.0°
Maximum altitude 18:43:43 45° 112° (ESE) 1,092 3.5 -9.2°
Drops below altitude 10° 18:49:03 10° 40° (NE) 2,480 5.1 -10.4°
Enters shadow 18:49:43 - 38° (NE) 2,723 5.4 -10.6°
